Location: Bathsheba
(13.2167°N, 59.5167°W)
Time: 23:54:09
(UTC+00:00)

Okean 2 Rocket - Pass Details

Date: 18 September 2020
Orbit: 616 x 642 km, 82.5° (Epoch: 20 October)

Event Time Altitude Azimuth Distance (km) Brightness Sun altitude
Rises 22:45:40 0° 170° (S) 2,937 6.4 -12.7°
Reaches altitude 10° 22:48:00 10° 162° (SSE) 2,029 5.5 -13.3°
Maximum altitude 22:52:14 41° 93° (E) 932 3.5 -14.3°
Drops below altitude 10° 22:56:27 10° 23° (NNE) 2,025 5.5 -15.4°
Sets 22:58:47 0° 16° (NNE) 2,930 6.4 -15.9°
